AirNav   ATP
 
 1034 users online  

KNZY North Island Naval Air Station (Halsey Field)
San Diego, California, USA

GOING TO SAN DIEGO?


FAA INFORMATION EFFECTIVE 21 JUNE 2018

Location

FAA Identifier: NZY
Lat/Long: 32-41-53.5060N / 117-12-47.1960W
32-41.891767N / 117-12.786600W
32.6981961 / -117.2131100
(estimated)
Elevation: 25.9 ft. / 7.9 m (surveyed)
Variation: 11E (2020)
From city: 3 miles SW of SAN DIEGO, CA
Time zone: UTC -7 (UTC -8 during Standard Time)
Zip code: 92118

Airport Operations

Airport use: Private use. Permission required prior to landing
Activation date: 05/1941
Control tower: yes
ARTCC: LOS ANGELES CENTER
FSS: SAN DIEGO FLIGHT SERVICE STATION
NOTAMs facility: NZY (NOTAM-D service available)
Attendance: ALL
1430Z++ MON- 0600Z++ SAT; 1600Z++ SAT- 0600Z++ SUN; 1600Z++ SUN- 0600Z++ MON. CLSD 0200Z++ DAY PRIOR TO 1430Z++ DAY FOLLOWING ALL FEDERAL HOLIDAYS. SEE FLIP AP/1 SUPPLEMENTARY ARPT INFO.
Segmented circle: no
Lights: AVBL ONLY DURING HRS OF OPERATION.
Beacon: white-white-green (lighted military airport)
Operates sunset to sunrise.

Airport Communications

ATIS: 317.8
NAVY NORTH ISLAND GROUND: 118.0 360.675 [1430Z++ MON- 0600Z++ SAT; 1600Z++ SAT- 0600Z++ SUN; 1600Z++ SUN- 0600Z++ MON. CLSD 0200Z++ DAY PRIOR TO 1430Z++ DAY FOLLOWING ALL FEDERAL HOLIDAYS. SEE FLIP AP/1 SUPPLEMENTARY ARPT INFO.]
NAVY NORTH ISLAND TOWER: 135.1 336.4 340.2 [1430Z++ MON- 0600Z++ SAT; 1600Z++ SAT- 0600Z++ SUN; 1600Z++ SUN- 0600Z++ MON. CLSD 0200Z++ DAY PRIOR TO 1430Z++ DAY FOLLOWING ALL FEDERAL HOLIDAYS. SEE FLIP AP/1 SUPPLEMENTARY ARPT INFO.]
SOCAL APPROACH: 125.15
SOCAL DEPARTURE: 125.15
CLEARANCE DELIVERY: 128.4 288.25
BASE OPS: 355.5
CHASR STAR: 124.35
EMERG: 121.5 243.0
PMSV METRO: 342.36
RDR: 127.7 134.1 289.8X 313.2X 350.8X 382.0X 385.5X
WX ASOS at SAN (2.4 nm NE): PHONE 619-296-8934
WX ASOS at MYF (8 nm NE): PHONE 858-576-4337
WX ASOS at NRS (9 nm SE): PHONE 619-437-9890
WX ASOS at SDM (14 nm SE): PHONE 619-661-8297
WX AWOS-3P at SEE (14 nm NE): 125.45 (619-449-1228)
  • FOR CLNC DEL WHEN ATCT CLSD CALL SOCAL APCH (800) 448-3724.

Nearby radio navigation aids

VOR radial/distance  VOR name  Freq  Var
MZBr158/5.1MISSION BAY VORTAC117.8015E
PGYr280/12.9POGGI VORTAC109.8014E
TIJr292/16.2TIJUANA VOR/DME116.5014E
OCNr147/34.1OCEANSIDE VORTAC115.3015E

Airport Services

Airframe service: NONE
Powerplant service: NONE
Bottled oxygen: NONE
Bulk oxygen: NONE

Runway Information

Runway 18/36

Dimensions: 8001 x 200 ft. / 2439 x 61 m
Surface: PEM
Weight bearing capacity: 
PCN 59 /R/B/W/T
Runway edge lights: high intensity
RUNWAY 18  RUNWAY 36
Latitude: 32-42.602083N32-41.330550N
Longitude: 117-12.700983W117-13.117183W
Elevation: 18.9 ft.9.9 ft.
Traffic pattern: leftleft
Runway heading: 184 magnetic, 195 true004 magnetic, 015 true
Visual slope indicator: 4-light PAPI on left (3.00 degrees glide path)4-light PAPI on left (3.00 degrees glide path)
Approach lights: SALS
Runway end identifier lights: yesyes
Centerline lights: yesyes
Touchdown point: yes, no lightsyes, no lights

Runway 11/29

Dimensions: 7501 x 200 ft. / 2286 x 61 m
Surface: PEM
Weight bearing capacity: 
PCN 59 /R/B/W/T
Runway edge lights: high intensity
RUNWAY 11  RUNWAY 29
Latitude: 32-42.139700N32-41.484833N
Longitude: 117-13.276517W117-12.035433W
Elevation: 19.1 ft.25.9 ft.
Traffic pattern: leftleft
Runway heading: 110 magnetic, 121 true290 magnetic, 301 true
Visual slope indicator: 4-light PAPI on left (3.00 degrees glide path)
Approach lights: ALSF1: standard 2,400 foot high intensity approach lighting system with centerline sequenced flashers (category I)
Runway end identifier lights: yes
Centerline lights: yesyes
Touchdown point: yes, no lightsyes, no lights

Airport Ownership and Management from official FAA records

Ownership: U.S. Navy
Owner: US NAVY
OCEANOGRAPHIC OFC - CODE 3142
WASHINGTON, DC 20373
Manager: COMMANDING OFFICER
NAVAL AIR STA NORTH ISLAND
SAN DIEGO, CA 92135

Additional Remarks

E60-11 HOOK E28(B) (1500')
E60-18 HOOK E28(B) (1850')
E60-36 HOOK E28(B) (1701')
E60-29 HOOK E28(B) (2601')
FUEL: EXP REFUL DELAYS. 100LL, J5.
FLUID: SP PRESAIR.
OIL: O-128-148-156-RSTD OIL ANALYSIS AVBL, PRIOR COORD RQR.
TRAN ALERT: OPR 1400-0600Z WKD AND 1600-0600Z WKEND; (DT- 1300-0500Z WKD AND 1500-0500Z WKEND). NO TRAN MAINT/LTD SVC. LOX NOT AVAILABLE.
TRAN ALERT: TRAN AIRCREW MUST REMAIN WITH ACFT TO PROVIDE TECHNICAL DRCT/ASSISTANCE IN SVCG. AIR TRML/TRAN LINE COORD ALL REFUL REQ. ARR ACFT PASS SVC REQ TO LINEMAN. ALL TRAN PILOTS CK IN WITH ODO, BASE OPS BLDG 516, UPON ARR.
JASU: 2(GTC-85)(NC-8)
A-GEAR: SHORT-FLD A-G RWY 29 NML DE-RIGGED. LONG-FLD A-G RWY 36 NML DE-RIGGED.
NS ABTMT: STRICT COMPLIANCE RQR.
CAUTION: BIRD HAZ MAY-OCT, PARTICULARLY AT DEP END RWY 29.
CSTMS/AG/IMG: CSTMS AVBL WITH 2 HR NTC 1600-0100Z++ MON-SAT. MIN 4 HR NTC RQR 0100-1600Z++.
RADAR: SEE TERMINAL FLIP FOR RADAR MINIMA.
LOC: 18, 29
CLSD 0600-1600Z++ SAT-SUN, 0600-1430Z++ MON, CLSD 0200Z++ DAY PRIOR TO 1430Z++ DAY FLW ALL FEDERAL HOL. SEE FLIP AP/1 SUPPLEMENTARY ARPT RMK.
RSTD: CALL AMGR DSN 735-8243, C619-545-8243, 619-778-2074 FOR PPR, 72 HR NOTICE. LCL FLT DUR RON PROH.
CAUTION: TWY DELTA AND TWY FOXTROT NOT LIT FOR NIGHT OPERATIONS.
CAUTION: RWY 11/29 SFC AREA BTN THE RWY EDGE LNS AND REDLS, APRXLY 50 FT ON EITHER SIDE, IS CRACKED AND HAS LOOSE GRVL. WRY 11/29 EDGE LGTS LOCATED 50 FT OUTBOARD OF RUNWAY EDGE LNS, AND ARE NOT WI 10 FT OF THE MKD RWY EDGE. PILOTS SHOULD EXERCISE CAUTION TRANSITING THE AREA BETWEEN THE RWY EDGE LNS AND REDLS.
CAUTION: RWY 18/36 RWY DIST MKRS LESS THAN THE REQD 50 FT OFF THE RWY EDGE.
CAUTION: TWY L EDGE LGTS NOT WI 10 FT OF MKD TWY EDGE.
MISC: VIP/LOGISTIC FLT CTC BASE OPS PRIOR TO LDG.
TFC PAT: USE MAX EXTERIOR LGT BLW 10,000' WITHIN 10 NM. ALL TRAN ACFT LTD TO FULL STOP ONLY. TOUCH-AND-GO/LO APCH NOT AVBL. TRAN ACFT SECTION APCH NOT AUTH. REDUCED RWY SEPARATION STD IN EFF USN/USMC ACFT.
CAUTION: EXTV VFR COPTER OPR SFC-500' VCNTY ARPT AND SFC-2000' 8 NM SE. LGT CIV ACFT CLIMB/DESCEND THRU RY 29 FINAL APCH CRS BYD 6 DME ENTER/DEP SAN DIEGO CLASS B AIRSPACE VFR CORRIDOR. AVOID CNTRLINE LGT DUR RY 29 OR RY 36 ARRESTMENT TO PREVENT TAILHOOK BOUNCE. HVY VEH TFC CROSS TWY L AND TWY A.

Instrument Procedures

NOTE: All procedures below are presented as PDF files. If you need a reader for these files, you should download the free Adobe Reader.

NOT FOR NAVIGATION. Please procure official charts for flight.
FAA instrument procedures published for use from 21 June 2018 at 0901Z to 19 July 2018 at 0900Z.

 
STARs - Standard Terminal Arrivals
BARET FIVE   2 pages: [1] [2] (429KB)
CHASR TWO (RNAV)   download (193KB)
 
IAPs - Instrument Approach Procedures
RNAV (GPS) RWY 36   download (97KB)
LOC/DME-A   download (145KB)
LOC/DME-B   download (133KB)
VOR/DME RWY 29   download (116KB)
HI-TACAN RWY 29   download (112KB)
HI-TACAN RWY 36   download (103KB)
TACAN RWY 29   download (112KB)
TACAN RWY 36   download (100KB)
HOTEL VISUAL RWY 29   download (92KB)
Radar Approach Procedures available   download (48KB)
 
Departure Procedures
NASNI EIGHT   download (137KB)
NOTE: Special Take-Off Minimums/Departure Procedures apply   download (190KB)

Other nearby airports with instrument procedures:

KSAN - San Diego International Airport (2 nm NE)
KMYF - Montgomery-Gibbs Executive Airport (8 nm NE)
KNRS - Imperial Beach Naval Outlying Field (Ream Field) (9 nm SE)
KNKX - Miramar MCAS (Joe Foss Field) Airport (11 nm N)
KSDM - Brown Field Municipal Airport (14 nm SE)
KSEE - Gillespie Field Airport (14 nm NE)
 
Loc | Ops | Rwys | IFR | FBO | Links
Com | Nav | Svcs | Stats | Notes

AirNav Hotels Sweepstakes
 
Area around KNZY (North Island Naval Air Station (Halsey Field))
 
Road maps at: MapQuest Bing Google
 
Aerial photo
WARNING: Photo may not be current or correct
Aerial photo of KNZY (North Island Naval Air Station (Halsey Field))
Photo by Paul Wickstrom
Photo taken 13-Dec-2010
looking west.

Do you have a better or more recent aerial photo of North Island Naval Air Station (Halsey Field) that you would like to share? If so, please send us your photo.

 
Sectional chart

 
Airport diagram
Diagram of KNZY (North Island Naval Air Station (Halsey Field))
Download PDF
of official airport diagram from the FAA

 
Airport distance calculator
Flying to North Island Naval Air Station (Halsey Field)? Find the distance to fly.

From to KNZY

Sunrise and sunset
Times for 23-Jun-2018
 Local
(UTC-7)
 Zulu
(UTC)
Morning civil twilight05:1412:14
Sunrise05:4312:43
Sunset19:5902:59
Evening civil twilight20:2803:28

Current date and time
Zulu (UTC)  23-Jun-2018 18:37:07
Local (UTC-7)  23-Jun-2018 11:37:07
 
METAR
KNZY 231752Z 19010KT 10SM OVC013 18/14 A2990 RMK SLP123 T01780144
KSAN 
3nm NE 
231815Z 18012KT 10SM OVC015 19/14 A2992 RMK AO2 T01890144
KMYF 
8nm NE 
231753Z 17009KT 10SM OVC012 18/13 A2990 RMK AO2 SLP123 T01780133 10178 20161 53017
KNRS 
9nm SE 
231820Z AUTO 21011KT 9SM OVC014 18/14 A2991 RMK AO2 T01830144
KNKX 
11nm N 
231755Z 18014KT 10SM BR OVC013 20/13 A2990 RMK AO2 SLP119 T02000133 10206 20183 53012
KSDM 
13nm SE 
231802Z 22010KT 10SM HZ OVC015 19/14 A2990 RMK AO2 T01940144
KSEE 
14nm NE 
231747Z 23009KT 7SM OVC017 19/14 A2990
MMTJ 
16nm SE 
231744Z 20005KT 6SM OVC015 19/14 A2992 RMK SLP134 52020 906 8/5// BINOVC HZY
TAF
KNZY 2315/2415 VRB06KT 9999 OVC008 QNH2979INS TEMPO 2315/2318 BKN012 BECMG 2318/2319 19008KT 9999 BKN012 QNH2977INS TEMPO 2319/2401 19010G15KT SCT015 FM240300 VRB06KT 8000 BR OVC010 QNH2978INS TEMPO 2409/2415 6000 BR OVC007 T22/2322Z T17/2412Z FS30020
KSAN 
3nm NE 
231734Z 2318/2424 18012KT P6SM OVC015
KNKX 
11nm N 
2311/2409 VRB05KT 9999 OVC015 QNH2979INS TEMPO 2311/2315 OVC009 BECMG 2315/2317 23007KT 9999 SCT015 QNH2977INS FM240130 21007KT 9999 BKN015 QNH2977INS FM240530 VRB05KT 9999 OVC015 QNH2981INS T17/2312Z T25/2321Z AMD 1150
MMTJ 
16nm SE 
231700Z 2318/2424 00000KT 5SM HZ BKN015 TX24/2321Z TN16/2412Z FM232000 28010KT P6SM SCT030 FM240300 00000KT 5SM HZ OVC015 FM240900 00000KT 2SM HZ OVC010 FM241600 00000KT 4SM HZ OVC015 FM241900 28010KT P6SM SKC
NOTAMs
Click for the latest NOTAMs
NOTAMs are issued by the DoD/FAA and will open in a separate window not controlled by AirNav.

 

 
 

Would you like to see your business listed on this page?

 If your business provides an interesting product or service to pilots, flight crews, aircraft, or users of the North Island Naval Air Station (Halsey Field), you should consider listing it here.  To start the listing process, click on the button below
 
Add a business
 

Other Pages about North Island Naval Air Station (Halsey Field)

www.nasni.navy.mil
 
Update a link
 
Copyright © AirNav, LLC. All rights reserved. Privacy Policy  Contact